Location: Sternwarte auf dem Internationalen Platz Vogelsang IP
(50.5721°N, 6.4398°E)
Time: 05:06:34
(UTC+01:00)

Transit 2A Rocket - Pass Details

Date: 17 December 2025
Orbit: 581 x 903 km, 66.7° (Epoch: 13 January)

Event Time Altitude Azimuth Distance (km) Brightness Sun altitude
Rises 06:52:05 0° 169° (SSE) 3,300 8.7 -14.5°
Reaches altitude 10° 06:54:59 10° 153° (SSE) 2,427 8.3 -14.1°
Maximum altitude 06:59:06 21° 106° (ESE) 1,831 8.0 -13.5°
Drops below altitude 10° 07:03:24 10° 60° (ENE) 2,553 8.2 -12.9°
Sets 07:06:31 0° 45° (NE) 3,521 8.8 -12.4°
